www.pogodaiklimat.ru

Погода и климат >> Архив погоды >> Россия >> Карачаево-Черкессия >> Зеленчукская


ПОГОДА в Зеленчукской

  • Прогноз погоды в Зеленчукской
  • Монитор погоды в Зеленчукской

АРХИВ ПОГОДЫ в Зеленчукской

Время (UTC), дата Ветер
(напр.,м/с)
 
Видим.   Явления Облачность Т
(С)
Тd
(С)
f
(%)
Тe
(С)
Тes
(С)
Комфортность P
(гПа)
Po
(гПа)
Тmin
(С)
Tmax
(С)
R
(мм)
R24
(мм)
S
(см)
15 13.08 СВ 3 50 км ясно +25.7 +8.4 33 +26 +27 жарко 1013.1 911.8 +28.8
18 13.08 Ю 2 50 км ясно +15.4 +11.0 75 +15 +15 1017.8 912.8
21 13.08 штиль 0 50 км ясно +10.9 +10.9 100 +10 +10 1018.0 911.4
00 14.08 Ю 2 50 км ясно +10.5 +10.5 100 +9 +9 1017.4 910.7
03 14.08 штиль 0 50 км ясно +8.6 +8.6 100 +8 +8 1018.5 910.9 +7.7
06 14.08 ЮВ 1 50 км ясно +21.3 +11.0 52 +23 +33 комфорт 1012.4 909.9
09 14.08 СВ 2 50 км ясно +29.5 +10.5 31 +30 +46 жарко 1008.6 909.0
12 14.08 С 3
{10}
50 км ясно +30.1 +11.1 31 +30 +39 жарко 1007.1 907.9
15 14.08 СВ 3 50 км ясно +27.3 +11.2 37 +28 +29 жарко 1007.9 907.8 +31.4
18 14.08 Ю 1 50 км ясно +16.7 +13.5 81 +18 +18 1011.9 908.1
21 14.08 Ю 2 50 км ясно +13.9 +13.0 94 +13 +13 1012.0 907.2
00 15.08 Ю 1 50 км ясно +12.0 +12.0 100 +12 +12 1011.7 906.2
03 15.08 Ю 1 50 км ясно +11.3 +11.3 100 +11 +11 1011.9 906.1 +10.0
06 15.08 штиль 0 50 км ясно +25.2 +12.7 46 +27 +39 жарко 1006.9 906.3
09 15.08 СЗ 2 50 км ясно +31.8 +10.1 26 +31 +48 жарко 1004.4 906.0
12 15.08 С 2 50 км ясно +34.3 +10.9 24 +34 +44 очень
жарко
1002.5 905.0
15 15.08 С 2 50 км ясно +30.5 +9.4 27 +30 +31 жарко 1003.3 904.6 +34.9
18 15.08 штиль 0 50 км ясно +18.5 +12.6 68 +19 +19 1008.6 905.6
21 15.08 штиль 0 50 км ясно +15.1 +13.1 88 +15 +15 1010.0 905.8
00 16.08 штиль 0 50 км 1/0
[Ac trans]
+13.5 +13.5 100 +13 +13 1011.0 906.2
03 16.08 штиль 0 50 км 3/0
[Ac trans]
+13.6 +13.6 100 +13 +13 1011.9 907.0 +12.9
06 16.08 ЮВ 1 50 км 9/0
[Ac trans Ci fib]
+25.6 +14.2 49 +28 +33 жарко 1007.6 907.1
09 16.08 В 2 50 км 6/0
[Ac trans]
+32.9 +12.0 28 +33 +43 жарко 1002.7 904.8
12 16.08 С 4 50 км 9/1 600 м
[Cu med, cong Ac trans Ci fib]
+32.1 +11.0 27 +32 +35 жарко 1002.7 904.5
15 16.08 З 2
{11}
50 км в посл. час гроза 9/4 600 м
[Cu med, cong Ac trans Ci fib]
+26.2 +13.9 47 +28 +29 жарко 1005.0 904.9 +34.2
18 16.08 СЗ 1 50 км {гроза} 10/10 600 м
[Cb calv]
+21.7 +17.6 78 +26 +26 душно 1006.0 904.6
21 16.08 Ю 1 20 км гроза, ливневой дождь 10/10 600 м
[Cb calv]
+19.0 +19.0 100 +22 +22 комфорт 1008.4 905.9
00 17.08 штиль 0 50 км {гроза} ясно +16.1 +16.1 100 +16 +16 1008.1 904.6
03 17.08 СЗ 1 20 км в посл. час ливневой дождь 9/9 600 м
[Cb calv]
+16.8 +16.8 100 +18 +18 1009.4 905.9 +15.8 3
06 17.08 Ю 1 20 км {ливн. осадки} 10/10 600 м
[Cb calv]
+18.6 +18.6 100 +21 +21 комфорт 1009.1 906.4
09 17.08 ЮЗ 1 20 км в посл. час гроза {ливн. осадки} 10/10 600 м
[Cb calv]
+18.8 +18.8 100 +21 +21 комфорт 1010.2 907.5
12 17.08 ЮВ 1 20 км {гроза, ливн. осадки} 8/8 600 м
[Cb calv Ci fib]
+21.9 +19.0 84 +27 +30 душно 1008.6 907.1
15 17.08 штиль 0 50 км 8/5 600 м
[Cu Sc Ac trans]
+22.7 +15.2 63 +27 +27 душно 1008.7 907.2 +25.9 4
18 17.08 З 1 20 км 8/3 600 м
[Sc Ac trans]
+19.1 +17.4 90 +22 +22 комфорт 1010.7 907.9
21 17.08 штиль 0 20 км 9/9 600 м
[Sc]
+17.5 +17.5 100 +17 +17 1010.4 907.2
00 18.08 штиль 0 20 км 10/10 600 м
[Sc]
+17.4 +17.4 100 +17 +17 1009.7 906.5
03 18.08 штиль 0 20 км 10/10 600 м
[Sc]
+17.7 +17.7 100 +18 +18 1009.3 906.2 +16.5
06 18.08 С 1 10 км 10/10 600 м
[Cb calv]
+19.9 +18.8 93 +24 +24 комфорт 1008.5 906.3
09 18.08 СВ 1 20 км 10/10 600 м
[Cb calv]
+22.0 +17.2 74 +26 +26 душно 1007.9 906.4
12 18.08 штиль 0 20 км 10/10 600 м
[Cb calv]
+22.7 +17.4 72 +28 +28 душно 1008.5 907.1
15 18.08 штиль 0 20 км 10/10 600 м
[Cb calv]
+22.5 +16.9 71 +27 +27 душно 1009.4 907.9 +24.4
18 18.08 ЮЗ 1 20 км гроза, ливневой дождь 10/10 600 м
[Cb calv]
+19.5 +19.5 100 +23 +23 комфорт 1012.2 909.5
21 18.08 В 1 20 км {гроза, ливн. осадки} 10/10 600 м
[Sc]
+17.2 +17.2 100 +18 +18 1013.4 909.7
00 19.08 штиль 0 4000 м дымка {гроза, ливн. осадки} 10/10 600 м
[Sc]
+17.5 +17.5 100 +17 +17 1013.8 910.2
03 19.08 штиль 0 1000 м дымка 10/10 600 м
[Sc]
+17.5 +17.5 100 +17 +17 1014.7 911.0 +17.0 3
06 19.08 С 1 10 км {ливн. осадки} 9/9 600 м
[Cb calv]
+19.9 +19.9 100 +24 +25 комфорт 1014.7 911.9
09 19.08 В 1 20 км 9/9 600 м
[Cu Sc]
+25.9 +17.6 60 +30 +32 душно 1012.8 912.0
12 19.08 В 3 20 км 10/10 600 м
[Sc]
+25.4 +15.7 55 +29 +29 душно 1013.7 912.5
15 19.08 Ю 2 50 км 9/1 600 м
[Sc]
+24.5 +17.1 63 +28 +29 душно 1014.3 912.9 +27.1 0.0
18 19.08 Ю 1 50 км 5/5 600 м
[Sc]
+19.3 +18.1 93 +22 +22 комфорт 1017.1 913.7
21 19.08 С 1 50 км 4/3 600 м
[Sc Ac trans]
+16.5 +16.5 100 +17 +17 1017.5 913.2
00 20.08 штиль 0 50 км 5/0
[Ac trans]
+15.2 +15.2 100 +15 +15 1018.3 913.3
03 20.08 штиль 0 50 км 10/1 600 м
[Sc Ac trans Ci fib]
+15.1 +15.1 100 +15 +15 1019.2 914.1 +14.7
06 20.08 СВ 1 50 км 3/0
[Ac trans]
+23.3 +16.1 64 +28 +36 душно 1016.1 914.1
09 20.08 В 1 50 км 8/3 600 м
[Cu med, cong Ac trans]
+26.9 +15.5 50 +30 +37 душно 1014.4 913.7

 

Местоположение метеостанции Зеленчукская (Карачаево-Черкессия, Россия): широта 43.87 долгота 41.57 высота над уровнем моря 929 м.

В архиве по умолчанию представлена погода в Зеленчукской за последнюю неделю. Архивные данные за месяц целиком и за предыдущие месяцы, начиная с января 2011 года, Вы можете получить, выбрав интересующий диапазон дат из раскрывающегося списка и нажав кнопку "Ввод!".


*Определитесь, кто Вы:
робот инопланетянин человек

Внимание! Время в таблицах - всемирное. Для получения местного времени необходимо прибавить поправку, которая равна 3 ч.

Смотрите также архив погоды в соседних городах и на ближайших метеорологических станциях:

Погода в Теберде (Карачаево-Черкессия, Россия) (48 км)
Погода в Черкесске (Карачаево-Черкессия, Россия) (56 км)
Погода в Домбае (Карачаево-Черкессия, Россия) (56 км)
Погода в Отрадной (Краснодарский край, Россия) (59 км)
Погода в Архызе (Карачаево-Черкессия, Россия) (63 км)
Погода в Псебае (Краснодарский край, Россия) (70 км)
Погода на Клухорском Перевале (Карачаево-Черкессия, Россия) (87 км)
Погода в Шаджатмазе (Карачаево-Черкессия, Россия) (90 км)
Погода в Невинномысске (Ставропольский край, Россия) (90 км)
Погода в Кисловодске (Ставропольский край, Россия) (92 км)

Пояснения к столбцам:

Ветер - указаны скорость ветра в м/с - средняя за 10 мин, порывы в срок и между сроками (в фигурных скобках) и направление, откуда дует ветер: С - северный, СВ - северо-восточный, В - восточный, ЮВ - юго-восточный, Ю - южный, ЮЗ - юго-западный, З - западный, СЗ - северо-западный.
Видимость - горизонтальная дальность видимости в метрах или километрах. При видимости от 1 до 10 км при отсутствии осадков обычно наблюдается дымка, при ухудшении видимости до 1 км и менее - туман. В сухую погоду видимость может ухудшаться дымом, пылью или мглою.
Явления - указаны атмосферные явления, наблюдавшиеся в срок или в последний час перед сроком; фигурными скобками обозначены явления, наблюдавшиеся между сроками (за 1-3 часа до срока); квадратными скобками обозначены град или гололедные отложения с указанием их диаметра в мм.
Облачность - указаны через наклонную черту общая и нижняя облачность в баллах и высота нижней границы облаков в метрах; квадратными скобками обозначены формы облаков: Ci - перистые, Cs - перисто-слоистые, Cc - перисто-кучевые, Ac - высококучевые, As - высокослоистые, Sc - слоисто-кучевые, Ns - слоисто-дождевые, Cu - кучевые, Cb - кучево-дождевые. Подробнее классификацию облаков см. в Атласе облаков (PDF).
T - Температура воздуха - температура, измеренная на высоте 2 м над землей.
Td - Температура точки росы - температура, при понижении до которой содержащийся в воздухе водяной пар достигнет насыщения.
f - Относительная влажность воздуха - влажноcть воздуха, измеренная на высоте 2 м над землей.
Te - Эффективная температура - температура, которую ощущает одетый по сезону человек в тени. Характеристика душности погоды. При расчете учитывается влияние влажности воздуха и скорости ветра на теплоощущения человека.
Tes - Эффективная температура на солнце - температура, которую ощущает человек, с поправкой на солнечный нагрев. Характеристика знойности погоды. Зависит от высоты солнца над горизонтом, облачности и скорости ветра. Ночью, в пасмурную погоду, а также при ветре 12 м/с и более поправка равна нулю.
P - Атмосферное давление - приведенное к уровню моря атмосферное давление.
Po - Атмосферное давление - измеренное на уровне метеостанции атмосферное давление.
Tmin - Минимальная температура - минимум температуры воздуха на высоте 2 м над землей.
Tmax - Максимальная температура - максимум температуры воздуха на высоте 2 м над землей.
R - Количество осадков - Количество выпавших осадков за период времени, мм. При наведении курсора мыши на число - период времени, за который выпало указанное количество осадков.
R24 - Количество осадков - Количество выпавших осадков за 24 часа, мм.
S - Снежный покров - Высота снежного покрова, см. При наведении курсора мыши на число - состояние снежного покрова и степень покрытия местности в баллах.